| time (UTC) | temp F | wind direction | speed knots | gust knots | rain 1hr in | rain 24hr in | rain mn in | humidity % | barometer mb |
| 20260509182947 | 65 | 239 | 7.8 | 20.9 | 0.00 | 0.30 | 0.30 | 76 | 1011.9 |
| 20260509182047 | 66 | 249 | 7.8 | 20.9 | 0.00 | 0.30 | 0.30 | 71 | 1011.8 |
| 20260509181208 | 67 | 248 | 8.7 | 17.4 | 0.00 | 0.30 | 0.30 | 69 | 1011.6 |
| 20260509180247 | 67 | 244 | 8.7 | 17.4 | 0.00 | 0.30 | 0.30 | 68 | 1011.5 |
| 20260509175347 | 67 | 242 | 7.8 | 14.8 | 0.00 | 0.30 | 0.30 | 68 | 1011.5 |
| 20260509174448 | 67 | 230 | 7.8 | 17.4 | 0.00 | 0.30 | 0.30 | 69 | 1011.5 |
| 20260509173609 | 67 | 230 | 7.8 | 16.5 | 0.00 | 0.30 | 0.30 | 68 | 1011.4 |
| 20260509172647 | 67 | 232 | 7.8 | 19.1 | 0.00 | 0.30 | 0.30 | 70 | 1011.3 |
| 20260509171747 | 67 | 229 | 7.8 | 19.1 | 0.00 | 0.30 | 0.30 | 72 | 1011.2 |
| 20260509170847 | 67 | 241 | 9.6 | 16.5 | 0.00 | 0.30 | 0.30 | 73 | 1011.2 |
| 20260509165947 | 68 | 242 | 9.6 | 18.2 | 0.00 | 0.30 | 0.30 | 68 | 1011.1 |
| 20260509165047 | 68 | 249 | 9.6 | 19.1 | 0.00 | 0.30 | 0.30 | 65 | 1010.9 |
| 20260509164147 | 69 | 241 | 8.7 | 17.4 | 0.00 | 0.30 | 0.30 | 64 | 1010.8 |
| 20260509163247 | 68 | 239 | 8.7 | 18.2 | 0.00 | 0.30 | 0.30 | 65 | 1010.8 |
| 20260509162347 | 68 | 236 | 8.7 | 21.7 | 0.00 | 0.30 | 0.30 | 65 | 1010.7 |
| 20260509161447 | 69 | 239 | 7.8 | 15.6 | 0.00 | 0.30 | 0.30 | 63 | 1010.6 |
| 20260509160547 | 69 | 245 | 7.0 | 17.4 | 0.00 | 0.30 | 0.30 | 62 | 1010.6 |
| 20260509155708 | 70 | 243 | 8.7 | 18.2 | 0.00 | 0.30 | 0.30 | 62 | 1010.5 |
| 20260509154747 | 69 | 243 | 8.7 | 18.2 | 0.00 | 0.30 | 0.30 | 62 | 1010.5 |
| 20260509153908 | 69 | 246 | 9.6 | 20.0 | 0.00 | 0.30 | 0.30 | 64 | 1010.4 |
| 20260509152947 | 69 | 239 | 7.8 | 17.4 | 0.00 | 0.30 | 0.30 | 62 | 1010.4 |
| 20260509152047 | 70 | 248 | 10.4 | 18.2 | 0.00 | 0.30 | 0.30 | 62 | 1010.3 |
| 20260509151146 | 69 | 240 | 8.7 | 17.4 | 0.00 | 0.30 | 0.30 | 62 | 1010.4 |
| 20260509150308 | 70 | 240 | 8.7 | 20.0 | 0.00 | 0.30 | 0.30 | 61 | 1010.3 |
| 20260509145346 | 70 | 239 | 7.8 | 16.5 | 0.00 | 0.30 | 0.30 | 60 | 1010.2 |
| 20260509144447 | 70 | 254 | 9.6 | 17.4 | 0.00 | 0.30 | 0.30 | 60 | 1010.3 |
| 20260509143546 | 69 | 239 | 10.4 | 19.1 | 0.00 | 0.30 | 0.30 | 62 | 1010.2 |
| 20260509142646 | 69 | 239 | 8.7 | 23.5 | 0.00 | 0.30 | 0.30 | 60 | 1010.2 |
| 20260509141747 | 70 | 245 | 7.0 | 18.2 | 0.00 | 0.30 | 0.30 | 62 | 1010.1 |
| 20260509140846 | 69 | 237 | 7.0 | 16.5 | 0.00 | 0.30 | 0.30 | 64 | 1010.0 |
| 20260509140007 | 69 | 240 | 8.7 | 18.2 | 0.00 | 0.30 | 0.30 | 65 | 1010.0 |
| 20260509135046 | 69 | 240 | 9.6 | 20.9 | 0.00 | 0.30 | 0.30 | 65 | 1010.0 |
| 20260509134146 | 68 | 246 | 9.6 | 16.5 | 0.00 | 0.30 | 0.30 | 68 | 1009.9 |
| 20260509133246 | 68 | 243 | 8.7 | 19.1 | 0.00 | 0.30 | 0.30 | 68 | 1009.9 |
| 20260509132407 | 67 | 245 | 7.0 | 20.0 | 0.05 | 0.30 | 0.30 | 73 | 1009.7 |
| 20260509131507 | 66 | 240 | 3.5 | 15.6 | 0.06 | 0.30 | 0.30 | 77 | 1009.7 |
| 20260509130547 | 65 | 227 | 2.6 | 12.2 | 0.21 | 0.30 | 0.30 | 86 | 1009.6 |
| 20260509125646 | 63 | 224 | 1.7 | 10.4 | 0.24 | 0.30 | 0.30 | 88 | 1009.6 |
| 20260509124746 | 63 | 226 | 3.5 | 11.3 | 0.24 | 0.30 | 0.30 | 90 | 1009.8 |
| 20260509123846 | 61 | 223 | 5.2 | 19.1 | 0.24 | 0.30 | 0.30 | 89 | 1009.9 |
| 20260509122946 | 60 | 225 | 3.5 | 19.1 | 0.25 | 0.30 | 0.30 | 89 | 1009.9 |
| 20260509122046 | 59 | 229 | 5.2 | 11.3 | 0.21 | 0.25 | 0.25 | 88 | 1009.7 |
| 20260509121146 | 60 | 260 | 7.0 | 19.1 | 0.16 | 0.20 | 0.20 | 85 | 1009.7 |
| 20260509120246 | 63 | 263 | 3.5 | 23.5 | 0.02 | 0.06 | 0.07 | 82 | 1010.0 |
| 20260509115346 | 63 | 245 | 4.3 | 13.0 | 0.02 | 0.06 | 0.06 | 86 | 1009.3 |
| 20260509114446 | 62 | 251 | 7.0 | 14.8 | 0.02 | 0.06 | 0.06 | 85 | 1009.3 |
| 20260509113546 | 62 | 261 | 7.8 | 21.7 | 0.02 | 0.06 | 0.06 | 82 | 1009.2 |
| 20260509112646 | 65 | 229 | 6.1 | 21.7 | 0.00 | 0.04 | 0.04 | 78 | 1009.3 |
| 20260509111746 | 65 | 201 | 7.8 | 15.6 | 0.00 | 0.04 | 0.04 | 80 | 1008.5 |
| 20260509110846 | 65 | 202 | 8.7 | 19.1 | 0.00 | 0.04 | 0.04 | 79 | 1009.0 |
| 20260509105946 | 65 | 198 | 7.8 | 20.9 | 0.00 | 0.04 | 0.04 | 78 | 1009.0 |
| 20260509105046 | 66 | 196 | 7.0 | 20.0 | 0.00 | 0.04 | 0.04 | 76 | 1009.0 |
| 20260509104146 | 66 | 205 | 8.7 | 15.6 | 0.00 | 0.04 | 0.04 | 74 | 1009.0 |
| 20260509103246 | 67 | 202 | 7.8 | 26.1 | 0.00 | 0.04 | 0.04 | 73 | 1009.1 |
| 20260509102346 | 67 | 200 | 5.2 | 19.1 | 0.00 | 0.04 | 0.04 | 75 | 1009.0 |
| 20260509101446 | 67 | 213 | 6.1 | 14.8 | 0.01 | 0.04 | 0.04 | 76 | 1008.8 |
| 20260509100546 | 66 | 209 | 6.1 | 19.1 | 0.02 | 0.04 | 0.04 | 79 | 1008.8 |
| 20260509095646 | 65 | 202 | 5.2 | 19.1 | 0.02 | 0.04 | 0.04 | 81 | 1008.6 |
| 20260509094746 | 64 | 203 | 7.0 | 17.4 | 0.02 | 0.04 | 0.04 | 83 | 1008.6 |
| 20260509093907 | 64 | 210 | 7.0 | 17.4 | 0.02 | 0.04 | 0.04 | 84 | 1008.6 |
| 20260509093007 | 63 | 205 | 7.0 | 17.4 | 0.02 | 0.04 | 0.04 | 86 | 1008.7 |
| 20260509092046 | 63 | 209 | 7.0 | 16.5 | 0.02 | 0.04 | 0.04 | 84 | 1008.7 |
| 20260509091146 | 64 | 208 | 7.8 | 20.9 | 0.00 | 0.02 | 0.02 | 80 | 1008.8 |
| 20260509090245 | 65 | 202 | 8.7 | 20.9 | 0.00 | 0.02 | 0.02 | 75 | 1008.6 |
| 20260509085346 | 66 | 209 | 8.7 | 19.1 | 0.00 | 0.02 | 0.02 | 75 | 1008.4 |
| 20260509084445 | 65 | 208 | 7.8 | 24.3 | 0.01 | 0.02 | 0.02 | 75 | 1008.2 |
| 20260509083545 | 64 | 196 | 7.8 | 18.2 | 0.01 | 0.02 | 0.02 | 77 | 1008.3 |
| 20260509082646 | 64 | 199 | 7.8 | 20.0 | 0.01 | 0.02 | 0.02 | 77 | 1008.1 |
| 20260509081745 | 64 | 204 | 7.0 | 20.9 | 0.02 | 0.02 | 0.02 | 78 | 1008.1 |
| 20260509080845 | 64 | 194 | 7.0 | 15.6 | 0.02 | 0.02 | 0.02 | 77 | 1008.1 |
| 20260509075945 | 64 | 190 | 7.0 | 16.5 | 0.02 | 0.02 | 0.02 | 79 | 1008.2 |
| 20260509075045 | 64 | 194 | 6.1 | 18.2 | 0.02 | 0.02 | 0.02 | 79 | 1008.3 |
| 20260509074206 | 63 | 204 | 6.1 | 17.4 | 0.02 | 0.02 | 0.02 | 81 | 1008.2 |
| 20260509073245 | 62 | 196 | 5.2 | 18.2 | 0.02 | 0.02 | 0.02 | 82 | 1008.3 |
| 20260509072346 | 62 | 201 | 5.2 | 17.4 | 0.02 | 0.02 | 0.02 | 81 | 1008.3 |
| 20260509071445 | 62 | 200 | 5.2 | 16.5 | 0.01 | 0.01 | 0.01 | 82 | 1008.3 |
| 20260509070545 | 62 | 195 | 5.2 | 16.5 | 0.01 | 0.01 | 0.01 | 82 | 1008.2 |
| 20260509065645 | 62 | 194 | 5.2 | 13.9 | 0.00 | 0.00 | 0.00 | 81 | 1008.3 |
| 20260509064745 | 63 | 182 | 5.2 | 13.9 | 0.00 | 0.00 | 0.00 | 80 | 1008.0 |
| 20260509063846 | 63 | 191 | 4.3 | 14.8 | 0.00 | 0.00 | 0.00 | 81 | 1008.1 |
| 20260509062945 | 62 | 193 | 4.3 | 13.0 | 0.00 | 0.00 | 0.00 | 81 | 1008.1 |
| 20260509062107 | 62 | 191 | 4.3 | 13.9 | 0.00 | 0.00 | 0.00 | 81 | 1007.9 |
| 20260509061206 | 62 | 185 | 4.3 | 11.3 | 0.00 | 0.00 | 0.00 | 81 | 1007.8 |
| 20260509060245 | 62 | 183 | 4.3 | 12.2 | 0.00 | 0.00 | 0.00 | 81 | 1007.9 |
| 20260509055406 | 62 | 192 | 4.3 | 11.3 | 0.00 | 0.00 | 0.00 | 81 | 1007.9 |
| 20260509054445 | 63 | 188 | 3.5 | 13.0 | 0.00 | 0.00 | 0.00 | 80 | 1007.5 |
| 20260509053545 | 63 | 200 | 3.5 | 8.7 | 0.00 | 0.00 | 0.00 | 79 | 1007.7 |
| 20260509052645 | 63 | 203 | 2.6 | 8.7 | 0.00 | 0.00 | 0.00 | 77 | 1007.7 |
| 20260509051806 | 63 | 200 | 1.7 | 6.1 | 0.00 | 0.00 | 0.00 | 76 | 1007.8 |
| 20260509050845 | 63 | 208 | 0.9 | 4.3 | 0.00 | 0.00 | 0.00 | 75 | 1007.6 |
| 20260509050006 | 63 | 218 | 0.9 | 3.5 | 0.00 | 0.00 | 0.00 | 75 | 1007.4 |
| 20260509045045 | 63 | 188 | 0.9 | 2.6 | 0.00 | 0.00 | 0.00 | 74 | 1007.4 |
| 20260509044145 | 63 | 194 | 0.9 | 3.5 | 0.00 | 0.00 | 0.00 | 74 | 1007.4 |
| 20260509043245 | 63 | 198 | 0.0 | 3.5 | 0.00 | 0.00 | 0.00 | 73 | 1007.6 |
| 20260509042345 | 63 | 189 | 0.0 | 1.7 | 0.00 | 0.00 | 0.00 | 72 | 1007.7 |
| 20260509041445 | 63 | 144 | 0.0 | 1.7 | 0.00 | 0.00 | 0.00 | 72 | 1007.7 |
| 20260509040545 | 63 | 126 | 0.0 | 1.7 | 0.00 | 0.00 | 0.00 | 72 | 1007.7 |
| 20260509035645 | 63 | 119 | 0.0 | 0.9 | 0.00 | 0.00 | 0.00 | 71 | 1007.6 |
| 20260509034745 | 63 | 119 | 0.9 | 1.7 | 0.00 | 0.00 | 0.00 | 71 | 1007.6 |
| 20260509033845 | 63 | 131 | 0.9 | 4.3 | 0.00 | 0.00 | 0.00 | 71 | 1007.6 |
| 20260509032945 | 63 | 167 | 0.0 | 2.6 | 0.00 | 0.00 | 0.00 | 70 | 1007.7 |
| 20260509032045 | 63 | 169 | 0.9 | 1.7 | 0.00 | 0.00 | 0.00 | 70 | 1007.9 |
| 20260509031144 | 63 | 143 | 0.9 | 3.5 | 0.00 | 0.00 | 0.00 | 71 | 1007.7 |
| 20260509030244 | 63 | 165 | 0.9 | 4.3 | 0.00 | 0.00 | 0.00 | 71 | 1008.0 |
| 20260509025344 | 63 | 140 | 1.7 | 4.3 | 0.00 | 0.00 | 0.00 | 71 | 1008.0 |
| 20260509024444 | 63 | 156 | 0.9 | 6.1 | 0.00 | 0.00 | 0.00 | 71 | 1008.0 |
| 20260509023544 | 63 | 176 | 0.9 | 3.5 | 0.00 | 0.00 | 0.00 | 71 | 1008.1 |
| 20260509022644 | 63 | 177 | 0.9 | 4.3 | 0.00 | 0.00 | 0.00 | 71 | 1008.2 |
| 20260509021805 | 63 | 205 | 1.7 | 4.3 | 0.00 | 0.00 | 0.00 | 70 | 1008.2 |
| 20260509020844 | 63 | 183 | 1.7 | 6.1 | 0.00 | 0.00 | 0.00 | 70 | 1008.1 |
| 20260509015944 | 64 | 163 | 0.9 | 6.1 | 0.00 | 0.00 | 0.00 | 70 | 1008.1 |
| 20260509015044 | 64 | 168 | 1.7 | 4.3 | 0.00 | 0.00 | 0.00 | 70 | 1008.3 |
| 20260509014205 | 64 | 151 | 0.9 | 5.2 | 0.00 | 0.00 | 0.00 | 70 | 1008.2 |
| 20260509013244 | 64 | 169 | 0.0 | 1.7 | 0.00 | 0.00 | 0.00 | 70 | 1008.2 |
| 20260509012344 | 64 | 172 | 0.9 | 4.3 | 0.00 | 0.00 | 0.00 | 70 | 1008.4 |
| 20260509011444 | 64 | 194 | 0.9 | 2.6 | 0.00 | 0.00 | 0.00 | 70 | 1008.5 |
| 20260509010544 | 64 | 207 | 0.9 | 2.6 | 0.00 | 0.00 | 0.00 | 70 | 1008.7 |
| 20260509005644 | 64 | 166 | 0.9 | 4.3 | 0.00 | 0.00 | 0.00 | 70 | 1008.6 |
| 20260509004744 | 64 | 230 | 0.0 | 3.5 | 0.00 | 0.00 | 0.00 | 70 | 1008.7 |
| 20260509003845 | 64 | 247 | 0.9 | 3.5 | 0.00 | 0.00 | 0.00 | 71 | 1008.7 |
| 20260509002944 | 64 | 234 | 0.9 | 3.5 | 0.00 | 0.00 | 0.00 | 71 | 1008.9 |
| 20260509002044 | 64 | 198 | 0.9 | 2.6 | 0.00 | 0.00 | 0.00 | 71 | 1008.9 |
| 20260509001205 | 64 | 190 | 0.0 | 4.3 | 0.00 | 0.00 | 0.00 | 71 | 1009.1 |
| 20260509000244 | 64 | 186 | 0.0 | 2.6 | 0.00 | 0.00 | 0.00 | 71 | 1009.0 |
| 20260508235344 | 64 | 248 | 0.0 | 2.6 | 0.00 | 0.00 | 0.00 | 71 | 1009.2 |
| 20260508234444 | 64 | 268 | 0.9 | 2.6 | 0.00 | 0.00 | 0.00 | 70 | 1009.4 |
| 20260508233605 | 64 | 262 | 0.9 | 3.5 | 0.00 | 0.00 | 0.00 | 70 | 1009.6 |
| 20260508232644 | 64 | 236 | 0.9 | 3.5 | 0.00 | 0.00 | 0.00 | 70 | 1009.6 |
| 20260508231744 | 64 | 244 | 1.7 | 3.5 | 0.00 | 0.00 | 0.00 | 69 | 1009.7 |
| 20260508230844 | 64 | 234 | 0.9 | 4.3 | 0.00 | 0.00 | 0.00 | 69 | 1009.9 |
| 20260508225944 | 64 | 232 | 1.7 | 3.5 | 0.00 | 0.00 | 0.00 | 69 | 1009.8 |
| 20260508225044 | 64 | 252 | 1.7 | 3.5 | 0.00 | 0.00 | 0.00 | 68 | 1009.9 |
| 20260508224144 | 64 | 242 | 1.7 | 7.0 | 0.00 | 0.00 | 0.00 | 68 | 1009.9 |
| 20260508223244 | 64 | 232 | 1.7 | 3.5 | 0.00 | 0.00 | 0.00 | 68 | 1009.9 |
| 20260508222344 | 64 | 246 | 1.7 | 4.3 | 0.00 | 0.00 | 0.00 | 67 | 1010.0 |
| 20260508221444 | 64 | 270 | 2.6 | 7.8 | 0.00 | 0.00 | 0.00 | 67 | 1010.0 |
| 20260508220544 | 64 | 260 | 2.6 | 6.1 | 0.00 | 0.00 | 0.00 | 66 | 1009.9 |
| 20260508215644 | 64 | 264 | 2.6 | 6.1 | 0.00 | 0.00 | 0.00 | 66 | 1009.9 |
| 20260508214744 | 64 | 272 | 3.5 | 7.0 | 0.00 | 0.00 | 0.00 | 65 | 1009.9 |
| 20260508213844 | 65 | 270 | 4.3 | 8.7 | 0.00 | 0.00 | 0.00 | 65 | 1010.0 |
| 20260508212943 | 65 | 272 | 4.3 | 9.6 | 0.00 | 0.00 | 0.00 | 65 | 1010.0 |
| 20260508212044 | 65 | 273 | 3.5 | 8.7 | 0.00 | 0.00 | 0.00 | 64 | 1009.9 |
| 20260508211144 | 65 | 268 | 2.6 | 7.0 | 0.00 | 0.00 | 0.00 | 63 | 1009.7 |
| 20260508210244 | 65 | 259 | 2.6 | 6.1 | 0.00 | 0.00 | 0.00 | 63 | 1009.8 |
| 20260508205343 | 65 | 274 | 2.6 | 7.8 | 0.00 | 0.00 | 0.00 | 63 | 1009.7 |
| 20260508204443 | 65 | 260 | 3.5 | 8.7 | 0.00 | 0.00 | 0.00 | 61 | 1009.5 |
| 20260508203543 | 66 | 264 | 4.3 | 8.7 | 0.00 | 0.00 | 0.00 | 61 | 1009.5 |
| 20260508202643 | 66 | 249 | 5.2 | 9.6 | 0.00 | 0.00 | 0.00 | 60 | 1009.4 |
| 20260508201743 | 66 | 246 | 5.2 | 12.2 | 0.00 | 0.00 | 0.00 | 59 | 1009.3 |
| 20260508200843 | 66 | 245 | 6.1 | 12.2 | 0.00 | 0.00 | 0.00 | 57 | 1009.3 |
| 20260508195943 | 66 | 249 | 6.1 | 11.3 | 0.00 | 0.00 | 0.00 | 56 | 1009.1 |
| 20260508195044 | 67 | 257 | 6.1 | 11.3 | 0.00 | 0.00 | 0.00 | 55 | 1009.1 |
| 20260508194143 | 67 | 239 | 6.1 | 12.2 | 0.00 | 0.00 | 0.00 | 53 | 1009.0 |
| 20260508193243 | 68 | 243 | 6.1 | 13.0 | 0.00 | 0.00 | 0.00 | 52 | 1009.0 |
| 20260508192343 | 68 | 241 | 7.0 | 15.6 | 0.00 | 0.00 | 0.00 | 51 | 1008.8 |
| 20260508191444 | 68 | 243 | 7.0 | 13.9 | 0.00 | 0.00 | 0.00 | 52 | 1008.7 |
| 20260508190543 | 69 | 243 | 6.1 | 13.0 | 0.00 | 0.00 | 0.00 | 53 | 1008.6 |
| 20260508185643 | 70 | 243 | 6.1 | 13.0 | 0.00 | 0.00 | 0.00 | 54 | 1008.4 |
| 20260508184743 | 70 | 246 | 6.1 | 13.0 | 0.00 | 0.00 | 0.00 | 55 | 1008.4 |
| 20260508183844 | 70 | 247 | 6.1 | 11.3 | 0.00 | 0.00 | 0.00 | 54 | 1008.4 |